Time,TemperatureF,DewpointF,PressureIn,WindDirection,WindDirectionDegrees,WindSpeedMPH,WindSpeedGustMPH,Humidity,HourlyPrecipIn,Conditions,Clouds,dailyrainin,SolarRadiationWatts/m^2,SoftwareType,DateUTC
2013-02-18 00:00:00,40.8,18.3,30.35,NE,44,0.0,0.0,40,0.00,,,0.00,0,Wunderground v.1.15,2013-02-18 06:00:00,
2013-02-18 00:30:00,40.7,14.5,30.34,NE,44,0.0,0.0,34,0.00,,,0.00,0,Wunderground v.1.15,2013-02-18 06:30:00,
2013-02-18 01:00:00,42.5,7.2,30.33,NE,44,0.0,0.0,23,0.00,,,0.00,0,Wunderground v.1.15,2013-02-18 07:00:00,
2013-02-18 01:30:00,43.9,16.6,30.32,NE,44,0.0,0.0,33,0.00,,,0.00,0,Wunderground v.1.15,2013-02-18 07:30:00,
2013-02-18 02:00:00,43.8,22.2,30.32,NE,44,0.0,0.0,42,0.00,,,0.00,0,Wunderground v.1.15,2013-02-18 08:00:00,
2013-02-18 02:30:00,42.7,21.2,30.31,NNE,32,0.0,0.0,42,0.00,,,0.00,0,Wunderground v.1.15,2013-02-18 08:30:00,
2013-02-18 03:00:00,41.2,19.2,30.31,NNE,17,0.0,0.0,41,0.00,,,0.00,0,Wunderground v.1.15,2013-02-18 09:00:00,
2013-02-18 03:30:00,40.5,12.9,30.31,NNE,17,0.0,0.0,32,0.00,,,0.00,0,Wunderground v.1.15,2013-02-18 09:30:00,
2013-02-18 04:00:00,40.6,1.5,30.31,NNE,17,0.0,0.0,19,0.00,,,0.00,0,Wunderground v.1.15,2013-02-18 10:00:00,
2013-02-18 04:30:00,42.1,-33.6,30.31,NNE,17,0.0,0.0,3,0.00,,,0.00,0,Wunderground v.1.15,2013-02-18 10:30:00,
2013-02-18 05:00:00,44.8,-99.9,30.31,SE,134,0.0,0.0,0,0.00,,,0.00,0,Wunderground v.1.15,2013-02-18 11:00:00,
2013-02-18 06:30:00,49.8,7.9,30.32,NW,306,0.0,0.0,18,0.00,,,0.00,5,Wunderground v.1.15,2013-02-18 12:30:00,
2013-02-18 07:00:00,-999.9,-99.9,30.33,NE,38,0.0,0.0,255,0.00,,,0.00,23,Wunderground v.1.15,2013-02-18 13:00:00,
2013-02-18 07:30:00,51.7,-99.9,30.33,WNW,290,0.0,0.0,255,0.00,,,0.00,35,Wunderground v.1.15,2013-02-18 13:30:00,
2013-02-18 08:00:00,-999.9,-99.9,30.33,NNE,22,0.0,0.0,255,0.00,,,0.00,125,Wunderground v.1.15,2013-02-18 14:00:00,
2013-02-18 08:30:00,-999.9,-99.9,30.34,WNW,288,0.0,0.0,255,0.00,,,0.00,139,Wunderground v.1.15,2013-02-18 14:30:00,
2013-02-18 09:00:00,-999.9,-99.9,30.35,SE,125,0.0,6.0,255,0.00,,,0.00,98,Wunderground v.1.15,2013-02-18 15:00:00,
2013-02-18 09:30:00,-999.9,-99.9,30.36,ENE,76,1.0,1.0,255,0.00,,,0.00,241,Wunderground v.1.15,2013-02-18 15:30:00,
2013-02-18 10:00:00,-999.9,-99.9,30.35,ESE,103,2.0,2.0,255,0.00,,,0.00,679,Wunderground v.1.15,2013-02-18 16:00:00,
2013-02-18 10:30:00,-999.9,-99.9,30.35,SE,127,1.0,1.0,255,0.00,,,0.00,719,Wunderground v.1.15,2013-02-18 16:30:00,
2013-02-18 11:00:00,-999.9,-99.9,30.35,SSE,147,1.0,1.0,255,0.00,,,0.00,656,Wunderground v.1.15,2013-02-18 17:00:00,
2013-02-18 11:30:00,-999.9,-99.9,30.35,SE,142,1.0,1.0,255,0.00,,,0.00,761,Wunderground v.1.15,2013-02-18 17:30:00,
2013-02-18 12:00:00,-999.9,-99.9,30.34,SE,144,1.0,4.0,255,0.00,,,0.00,831,Wunderground v.1.15,2013-02-18 18:00:00,
2013-02-18 12:30:00,-999.9,-99.9,30.32,WSW,245,1.0,1.0,255,0.00,,,0.00,807,Wunderground v.1.15,2013-02-18 18:30:00,
2013-02-18 13:00:00,-999.9,-99.9,30.31,West,260,1.0,2.0,255,0.00,,,0.00,854,Wunderground v.1.15,2013-02-18 19:00:00,
2013-02-18 13:30:00,-999.9,-99.9,30.30,SSE,148,1.0,1.0,255,0.00,,,0.00,272,Wunderground v.1.15,2013-02-18 19:30:00,
2013-02-18 14:00:00,-999.9,-99.9,30.30,NW,310,1.0,1.0,255,0.00,,,0.00,197,Wunderground v.1.15,2013-02-18 20:00:00,
2013-02-18 14:30:00,-999.9,-99.9,30.29,WNW,283,0.0,0.0,255,0.00,,,0.00,134,Wunderground v.1.15,2013-02-18 20:30:00,
2013-02-18 15:00:00,-999.9,-99.9,30.27,NNE,23,1.0,1.0,255,0.00,,,0.00,376,Wunderground v.1.15,2013-02-18 21:00:00,
2013-02-18 15:30:00,-999.9,-99.9,30.25,SSE,153,1.0,1.0,255,0.00,,,0.00,98,Wunderground v.1.15,2013-02-18 21:30:00,
2013-02-18 16:00:00,-999.9,-99.9,30.23,East,82,3.0,5.0,255,0.00,,,0.00,60,Wunderground v.1.15,2013-02-18 22:00:00,
2013-02-18 16:30:00,-999.9,-99.9,30.23,NE,55,3.0,3.0,255,0.00,,,0.00,32,Wunderground v.1.15,2013-02-18 22:30:00,
2013-02-18 17:00:00,-999.9,-99.9,30.22,East,90,2.0,2.0,255,0.00,,,0.00,26,Wunderground v.1.15,2013-02-18 23:00:00,
2013-02-18 17:30:00,-999.9,-99.9,30.22,East,80,2.0,2.0,255,0.00,,,0.00,0,Wunderground v.1.15,2013-02-18 23:30:00,
2013-02-18 18:00:00,-999.9,-99.9,30.22,SE,133,2.0,2.0,255,0.00,,,0.00,0,Wunderground v.1.15,2013-02-19 00:00:00,
2013-02-18 18:30:00,-999.9,-99.9,30.21,SSE,167,1.0,1.0,255,0.00,,,0.00,0,Wunderground v.1.15,2013-02-19 00:30:00,
2013-02-18 19:00:00,-999.9,-99.9,30.20,WSW,250,1.0,2.0,255,0.00,,,0.00,0,Wunderground v.1.15,2013-02-19 01:00:00,
2013-02-18 19:30:00,-999.9,-99.9,30.20,WNW,298,1.0,1.0,255,0.00,,,0.00,0,Wunderground v.1.15,2013-02-19 01:30:00,
2013-02-18 20:00:00,-999.9,-99.9,30.20,NW,324,0.0,1.0,255,0.00,,,0.00,0,Wunderground v.1.15,2013-02-19 02:00:00,
2013-02-18 20:30:00,-999.9,-99.9,30.20,NW,306,0.0,1.0,255,0.00,,,0.00,0,Wunderground v.1.15,2013-02-19 02:30:00,
2013-02-18 21:00:00,-999.9,-99.9,30.19,SSW,192,1.0,2.0,255,0.00,,,0.00,0,Wunderground v.1.15,2013-02-19 03:00:00,
2013-02-18 21:30:00,-999.9,-99.9,30.18,WNW,293,1.0,1.0,255,0.00,,,0.00,0,Wunderground v.1.15,2013-02-19 03:30:00,
2013-02-18 22:00:00,-999.9,-99.9,30.17,WNW,289,1.0,1.0,255,0.00,,,0.00,0,Wunderground v.1.15,2013-02-19 04:00:00,
2013-02-18 22:30:00,-999.9,-99.9,30.16,ESE,107,1.0,1.0,255,0.00,,,0.00,0,Wunderground v.1.15,2013-02-19 04:30:00,
2013-02-18 23:00:00,-999.9,-99.9,30.14,South,181,1.0,1.0,255,0.00,,,0.00,0,Wunderground v.1.15,2013-02-19 05:00:00,
2013-02-18 23:30:00,-999.9,-99.9,30.12,SW,228,1.0,3.0,255,0.00,,,0.00,0,Wunderground v.1.15,2013-02-19 05:30:00,